Date String (YYYY-MM-DD hh:mm:ss) UTC,Instrument flags,Ambient pressure (hPa),Sample flow (lpm),Bypass flow (lpm),Sample temperature (°C),Ambient temperature (°C),ASC tube jacket temperature (°C),LED temperature (°C),Box temperature (°C),Sample RH (%),Span deviation,Mass concentration (μg/m³),Mass concentration (μg/m³),Mass concentration (μg/m³)
DateTimeUTC,F1_M11,P_M11,Q1_M11,Q2_M11,T1_M11,T2_M11,T3_M11,T4_M11,T5_M11,U1_M11,ZSPAN_M11,X0_M11,X2_M11,X1_M11
2022-07-26 19:00:00,,0829.0,5.00,0.00,29.4,27.7,00.0,38.0,31.1,32.4,0000.0,0015.91,0008.58,0007.58
2022-07-26 19:01:00,,0828.9,5.00,0.00,29.4,27.9,00.0,38.1,31.2,32.7,0000.0,0016.03,0008.62,0007.60
2022-07-26 19:02:00,,0828.9,5.00,0.00,29.4,28.0,00.0,38.1,31.3,32.1,0000.0,0015.89,0008.56,0007.59
2022-07-26 19:03:00,,0828.9,4.99,0.00,29.5,28.2,00.0,38.1,31.4,32.7,0000.0,0016.77,0008.56,0007.60
2022-07-26 19:04:00,,0829.1,5.01,0.00,29.5,27.9,00.0,38.1,31.4,33.4,0000.0,0017.78,0008.57,0007.59
2022-07-26 19:05:00,,0829.3,4.99,0.00,29.5,27.3,00.0,38.0,31.3,33.1,0000.0,0017.74,0008.56,0007.61
2022-07-26 19:06:00,,0829.1,5.01,0.00,29.4,27.1,00.0,38.0,31.2,32.9,0000.0,0018.23,0008.62,0007.65
2022-07-26 19:07:00,,0829.1,4.99,0.00,29.4,27.2,00.0,38.0,31.0,33.4,0000.0,0018.58,0008.65,0007.67
2022-07-26 19:08:00,,0829.3,4.99,0.00,29.3,27.3,00.0,38.0,31.0,33.7,0000.0,0018.77,0008.63,0007.69
2022-07-26 19:09:00,,0829.1,5.00,0.00,29.3,27.5,00.0,38.0,31.1,33.8,0000.0,0018.46,0008.61,0007.70
2022-07-26 19:10:00,,0829.2,5.01,0.00,29.3,27.7,00.0,38.0,31.1,33.7,0000.0,0018.44,0008.63,0007.71
2022-07-26 19:11:00,,0828.8,4.99,0.00,29.4,27.9,00.0,38.0,31.2,33.1,0000.0,0018.10,0008.62,0007.72
2022-07-26 19:12:00,,0829.0,5.00,0.00,29.4,28.0,00.0,38.0,31.3,32.9,0000.0,0018.88,0008.59,0007.72
2022-07-26 19:13:00,,0828.8,5.00,0.00,29.4,28.2,00.0,38.1,31.3,32.4,0000.0,0018.45,0008.66,0007.75
2022-07-26 19:14:00,,0828.9,5.00,0.00,29.5,28.0,00.0,38.0,31.4,32.4,0000.0,0017.33,0008.65,0007.76
2022-07-26 19:15:00,,0829.3,5.01,0.00,29.4,27.4,00.0,38.0,31.3,32.8,0000.0,0016.06,0008.64,0007.77
2022-07-26 19:16:00,,0829.3,4.99,0.00,29.4,27.1,00.0,38.0,31.2,32.4,0000.0,0016.14,0008.70,0007.77
2022-07-26 19:17:00,,0829.0,4.99,0.00,29.3,27.1,00.0,38.0,31.1,32.0,0000.0,0015.54,0008.68,0007.77
2022-07-26 19:18:00,,0829.3,5.01,0.00,29.3,27.3,00.0,38.0,31.0,32.5,0000.0,0014.67,0008.64,0007.76
2022-07-26 19:19:00,,0829.3,4.99,0.00,29.3,27.4,00.0,38.0,31.0,32.3,0000.0,0014.33,0008.64,0007.76
2022-07-26 19:20:00,,0829.2,5.00,0.00,29.3,27.6,00.0,38.0,31.1,32.4,0000.0,0014.60,0008.69,0007.75
2022-07-26 19:21:00,,0829.3,5.00,0.00,29.3,27.8,00.0,38.0,31.2,32.5,0000.0,0014.74,0008.69,0007.72
2022-07-26 19:22:00,,0829.3,5.00,0.00,29.4,28.0,00.0,38.0,31.3,32.8,0000.0,0014.77,0008.69,0007.70
2022-07-26 19:23:00,,0829.3,5.01,0.00,29.4,28.2,00.0,38.1,31.3,32.8,0000.0,0014.02,0008.75,0007.68
2022-07-26 19:24:00,,0829.3,5.00,0.00,29.4,28.1,00.0,38.0,31.4,33.2,0000.0,0014.01,0008.71,0007.64
2022-07-26 19:25:00,,0829.3,4.99,0.00,29.4,27.4,00.0,38.0,31.2,33.9,0000.0,0014.13,0008.71,0007.61
2022-07-26 19:26:00,,0829.3,5.01,0.00,29.4,27.1,00.0,38.0,31.2,33.2,0000.0,0014.32,0008.69,0007.58
2022-07-26 19:27:00,,0829.3,5.00,0.00,29.3,27.1,00.0,38.0,31.1,33.4,0000.0,0014.62,0008.65,0007.56
2022-07-26 19:28:00,,0829.3,5.01,0.00,29.3,27.2,00.0,38.0,31.0,33.0,0000.0,0015.34,0008.60,0007.53
2022-07-26 19:29:00,,0829.3,4.99,0.00,29.3,27.4,00.0,38.0,31.0,33.4,0000.0,0015.82,0008.56,0007.50
2022-07-26 19:30:00,,0829.4,4.99,0.00,29.3,27.6,00.0,38.0,31.1,33.5,0000.0,0015.97,0008.59,0007.48
2022-07-26 19:31:00,,0829.3,5.01,0.00,29.3,27.8,00.0,38.0,31.2,32.8,0000.0,0016.23,0008.55,0007.46
2022-07-26 19:32:00,,0829.3,4.99,0.00,29.3,28.0,00.0,38.0,31.3,32.8,0000.0,0016.10,0008.55,0007.47
2022-07-26 19:33:00,,0829.3,5.01,0.00,29.4,28.2,00.0,38.0,31.3,33.0,0000.0,0015.94,0008.55,0007.47
2022-07-26 19:34:00,,0829.3,5.00,0.00,29.4,28.1,00.0,38.0,31.4,32.6,0000.0,0015.82,0008.52,0007.46
2022-07-26 19:35:00,,0829.3,5.01,0.00,29.4,27.6,00.0,38.0,31.3,32.2,0000.0,0015.86,0008.51,0007.46
2022-07-26 19:36:00,,0829.3,4.99,0.00,29.4,27.2,00.0,37.9,31.2,32.5,0000.0,0016.20,0008.50,0007.47
2022-07-26 19:37:00,,0829.1,5.00,0.00,29.3,27.1,00.0,37.9,31.1,32.5,0000.0,0016.40,0008.51,0007.46
2022-07-26 19:38:00,,0829.3,5.00,0.00,29.3,27.2,00.0,37.9,31.0,32.2,0000.0,0016.62,0008.45,0007.45
2022-07-26 19:39:00,,0829.4,4.99,0.00,29.2,27.4,00.0,37.9,31.0,32.6,0000.0,0016.26,0008.46,0007.45
2022-07-26 19:40:00,,0829.2,5.00,0.00,29.3,27.6,00.0,38.0,31.1,32.5,0000.0,0015.85,0008.49,0007.45
2022-07-26 19:41:00,,0829.2,4.99,0.00,29.3,27.8,00.0,38.0,31.1,31.9,0000.0,0015.87,0008.47,0007.44
2022-07-26 19:42:00,,0829.3,5.01,0.00,29.3,28.0,00.0,38.0,31.2,32.1,0000.0,0015.35,0008.46,0007.45
2022-07-26 19:43:00,,0828.9,4.99,0.00,29.4,28.1,00.0,38.0,31.3,32.5,0000.0,0014.91,0008.47,0007.46
2022-07-26 19:44:00,,0829.1,5.00,0.00,29.4,28.1,00.0,38.0,31.3,32.0,0000.0,0014.99,0008.48,0007.47
2022-07-26 19:45:00,,0828.8,4.99,0.00,29.4,27.6,00.0,38.0,31.3,32.2,0000.0,0014.87,0008.46,0007.46
2022-07-26 19:46:00,,0828.8,5.00,0.00,29.3,27.1,00.0,37.9,31.2,32.2,0000.0,0015.23,0008.45,0007.46
2022-07-26 19:47:00,,0828.8,5.00,0.00,29.3,27.1,00.0,37.9,31.1,32.5,0000.0,0015.47,0008.45,0007.44
2022-07-26 19:48:00,,0828.8,4.99,0.00,29.3,27.2,00.0,37.9,31.0,32.2,0000.0,0015.95,0008.40,0007.43
2022-07-26 19:49:00,,0828.9,5.01,0.00,29.2,27.3,00.0,37.9,31.0,32.2,0000.0,0015.50,0008.44,0007.43
2022-07-26 19:50:00,,0828.8,5.00,0.00,29.3,27.6,00.0,37.9,31.1,32.4,0000.0,0015.01,0008.46,0007.45
2022-07-26 19:51:00,,0828.8,5.00,0.00,29.3,27.8,00.0,38.0,31.2,32.8,0000.0,0014.92,0008.49,0007.49
2022-07-26 19:52:00,,0828.8,4.99,0.00,29.3,28.0,00.0,38.0,31.2,32.9,0000.0,0014.95,0008.52,0007.54
2022-07-26 19:53:00,,0828.9,5.00,0.00,29.4,28.1,00.0,38.0,31.3,32.4,0000.0,0015.01,0008.57,0007.58
2022-07-26 19:54:00,,0828.9,5.00,0.00,29.4,27.9,00.0,38.0,31.3,32.5,0000.0,0015.61,0008.59,0007.60
2022-07-26 19:55:00,,0829.0,5.05,0.00,29.3,27.4,00.0,37.9,31.2,32.6,0000.0,0016.09,0008.60,0007.62
2022-07-26 19:56:00,,0828.9,4.99,0.00,29.3,27.1,00.0,37.9,31.1,32.5,0000.0,0016.31,0008.67,0007.67
2022-07-26 19:57:00,,0828.9,5.01,0.00,29.3,27.1,00.0,37.9,31.0,32.6,0000.0,0016.93,0008.76,0007.74
2022-07-26 19:58:00,,0828.9,4.99,0.00,29.2,27.2,00.0,37.9,31.0,32.5,0000.0,0016.56,0008.81,0007.79
2022-07-26 19:59:00,,0828.9,5.00,0.00,29.2,27.4,00.0,37.9,31.0,32.6,0000.0,0015.32,0008.88,0007.86
